Regional Weather Roundup
Issued by NWS Green Bay, WI

Home | Current Version | Previous Version | Graphics & Text | Print | Product List | Glossary Off
Versions: 1 2 3 4 5 6 7 8 9 10 11 12 13 14 15 16 17 18 19 20 21 22 23 24 25 26 27 28 29 30 31 32 33 34 35 36 37 38 39 40 41 42 43 44 45 46 47 48 49 50

000
ASUS43 KGRB 281059
RWRGRB

NORTH-CENTRAL AND NORTHEAST WISCONSIN REGIONAL WEATHER ROUNDUP
NATIONAL WEATHER SERVICE GREEN BAY WI
500 AM CST FRI NOV 28 2014

WIZ005-009-010>012-018-019-281200-
NORTH CENTRAL WISCONSIN

CITY           SKY/WX    TMP DP  RH WIND       PRES   REMARKS
IRONWOOD       CLOUDY     7   1  78 S3        30.13S
MANITOWISH WTR NOT AVBL
ARBOR VITAE    NOT AVBL
EAGLE RIVER    NOT AVBL
LAND O LAKES   NOT AVBL
RHINELANDER    CLOUDY     3  -1  83 E3        30.15F
PHILLIPS       NOT AVBL
ANTIGO         NOT AVBL
TOMAHAWK       NOT AVBL
MERRILL        NOT AVBL
$$

WIZ013-073-281200-
NORTHEAST WISCONSIN

CITY           SKY/WX    TMP DP  RH WIND       PRES   REMARKS
IRON MOUNTAIN  CLOUDY     1  -4  79 CALM      30.19F
MARINETTE      CLOUDY     7   3  85 CALM      30.26F
$$

WIZ017-030-035>037-045-281200-
CENTRAL WISCONSIN

CITY           SKY/WX    TMP DP  RH WIND       PRES   REMARKS
MEDFORD        NOT AVBL
WAUSAU         FLURRIES   7   2  80 S9        30.18F WCI  -7
MOSINEE        NOT AVBL
MARSHFIELD     FLURRIES   9   4  80 SE6       30.17F WCI  -1
WISC RAPIDS    LGT SNOW   8   3  80 SE6       30.22F WCI  -2
STEVENS POINT  NOT AVBL
WAUPACA        NOT AVBL
SHAWANO        NOT AVBL
CLINTONVILLE   NOT AVBL
$$

WIZ038-039-048-051-281200-
FOX VALLEY

CITY           SKY/WX    TMP DP  RH WIND       PRES   REMARKS
NWS GREEN BAY  CLOUDY     9   5  84 S3        30.27F
APPLETON       NOT AVBL
OSHKOSH        CLOUDY    11   5  77 MISG      30.26F
FOND DU LAC    CLOUDY    12   6  77 S7        30.27F WCI   1
$$

WIZ022-050-052-281200-
EAST CENTRAL WISCONSIN

CITY           SKY/WX    TMP DP  RH WIND       PRES   REMARKS
STURGEON BAY   CLOUDY    10   7  85 S3        30.25F
MANITOWOC      NOT AVBL
SHEBOYGAN      CLOUDY    11   5  77 SW5       30.29F WCI   3
$$

LMZ563-521-522-541>543-281200-
LAKESHORE

STATION/POSITION TIME  TEMP    WIND        PRES    VSBY  WAVE
                       AIR SEA DIR/SP/G                  HT/PER
                 (UTC) (F)     (DEG/KT/KT) (MB)    (MI)  (FT/S)
SHEBOYGAN LKSHOR 1000   13 34  250/  1/  2 1028.5F
KEWAUNEE LKSHORE 1000   10     300/  2/  6 1025.0F
NORTHPORT PIER   1000   14     170/  2/  5 1025.7F
N MID LAKE BUOY  1000   19 42  260/ 12/ 14 1027.2F         1/ 3
CHAMBERS ISLAND  1000   14     220/  2/  5 1026.1F
MENOMINEE LKSHOR 1000   11     280/  3/  3 1025.7F
$$



USA.gov is the U.S. government's official web portal to all federal, state and local government web resources and services.